Weather History for Syracuse, NY

Change the Weather History Date:

Thursday, July 4, 2013

  Actual Average Record
Temperature  
Mean Temperature 79 °F 71 °F  
Max Temperature 86 °F 81 °F 97 °F (1990)
Min Temperature 72 °F 60 °F 46 °F (1968)
Degree Days  
Heating Degree Days 0 0  
Month to date heating degree days 0 2  
Since 1 June heating degree days 61 63  
Since 1 July heating degree days 0 2  
Cooling Degree Days 14 6  
Month to date cooling degree days 44 24  
Year to date cooling degree days 220 167  
Since 1 June cooling degree days 168 137  
Growing Degree Days 29 (Base 50)    
Moisture  
Dew Point 70 °F    
Average Humidity 77    
Maximum Humidity 93    
Minimum Humidity 61    
Precipitation  
Precipitation T in 0.11 in 0.99 in (1984)
Month to date precipitation 0.53 0.47  
Year to date precipitation 21.27 17.71  
Snow  
Snow 0.00 in 0.00 in 0.00 in (2002)
Month to date snowfall 0.0 0.0  
Since 1 June snowfall 0.0 0.0  
Since 1 July snowfall 0.0 0.0  
Snow Depth 0.00 in    
Sea Level Pressure  
Sea Level Pressure 30.12 in    
Wind  
Wind Speed 6 mph (SSW)    
Max Wind Speed 20 mph    
Max Gust Speed 23 mph    
Visibility 10 miles    
Events Rain    
T = Trace of Precipitation, MM = Missing Value Source: NWS Daily Summary

Daily Weather History Graph

Daily Weather History Graph

Search for Another Location

Airport:

Trip Planner

Search our weather history database for the weather conditions in past years. The results will help you decide how hot, cold, wet, or windy it might be!

Date:

Astronomy

Jul. 04, 2013 Rise Set
Actual Time 5:30 AM EDT 8:46 PM EDT
Civil Twilight 4:55 AM EDT 9:22 PM EDT
Nautical Twilight 4:10 AM EDT 10:07 PM EDT
Astronomical Twilight 3:14 AM EDT 11:02 PM EDT
Moon 2:48 AM EDT (7/4) 5:47 PM EDT (7/4)
Length of Visible Light 16h 26m
Length of Day
15h 16m
Waning Crescent, 11% of the Moon is Illuminated
Jul 4
Waning Crescent
Jul 8
New
Jul 15
First Quarter
Jul 22
Full
Jul 29
Last Quarter

Hourly Weather History & Observations

Time (EDT) Temp. Heat Index Dew Point Humidity Pressure Visibility Wind Dir Wind Speed Gust Speed Precip Events Conditions
12:54 AM 73.9 °F - 71.1 °F 91% 30.13 in 10.0 mi Calm Calm - N/A   Overcast
1:54 AM 75.0 °F - 70.0 °F 84% 30.12 in 10.0 mi SSE 4.6 mph - N/A   Overcast
2:54 AM 73.9 °F - 70.0 °F 87% 30.12 in 10.0 mi SE 4.6 mph - N/A   Overcast
3:54 AM 75.0 °F - 70.0 °F 84% 30.12 in 10.0 mi SSE 5.8 mph - N/A   Overcast
4:54 AM 75.9 °F - 69.1 °F 79% 30.12 in 10.0 mi Calm Calm - N/A   Overcast
5:54 AM 73.9 °F - 70.0 °F 87% 30.13 in 10.0 mi East 3.5 mph - N/A   Overcast
6:54 AM 75.9 °F - 70.0 °F 82% 30.14 in 10.0 mi Calm Calm - N/A   Overcast
7:54 AM 80.1 °F 83.6 °F 71.1 °F 74% 30.15 in 10.0 mi SSE 4.6 mph - N/A   Mostly Cloudy
8:54 AM 81.0 °F 84.9 °F 71.1 °F 72% 30.15 in 10.0 mi SW 9.2 mph - N/A   Mostly Cloudy
9:54 AM 81.0 °F 84.4 °F 70.0 °F 69% 30.15 in 10.0 mi SSW 9.2 mph - N/A   Mostly Cloudy
10:54 AM 82.0 °F 86.3 °F 71.1 °F 69% 30.15 in 10.0 mi SSW 10.4 mph - N/A   Overcast
11:54 AM 82.0 °F 85.9 °F 70.0 °F 67% 30.13 in 10.0 mi WSW 10.4 mph - N/A   Mostly Cloudy
12:54 PM 82.9 °F 87.5 °F 71.1 °F 67% 30.13 in 10.0 mi West 12.7 mph - N/A   Mostly Cloudy
1:54 PM 79.0 °F - 68.0 °F 69% 30.13 in 10.0 mi NW 13.8 mph - 0.00 in Rain Light Rain
2:54 PM 80.1 °F 83.8 °F 72.0 °F 76% 30.13 in 10.0 mi WNW 11.5 mph - 0.00 in   Mostly Cloudy
3:54 PM 82.0 °F 86.7 °F 72.0 °F 71% 30.11 in 10.0 mi Calm Calm - N/A   Scattered Clouds
4:54 PM 84.0 °F 89.0 °F 71.1 °F 65% 30.10 in 10.0 mi Variable 3.5 mph - N/A   Scattered Clouds
5:54 PM 84.9 °F 89.4 °F 70.0 °F 61% 30.09 in 10.0 mi West 8.1 mph - N/A   Scattered Clouds
6:54 PM 84.9 °F 88.8 °F 69.1 °F 59% 30.09 in 10.0 mi WNW 6.9 mph - N/A   Scattered Clouds
7:54 PM 82.9 °F 87.5 °F 71.1 °F 67% 30.09 in 10.0 mi West 5.8 mph - N/A   Scattered Clouds
8:54 PM 79.0 °F - 71.1 °F 77% 30.10 in 10.0 mi Calm Calm - N/A   Partly Cloudy
9:54 PM 77.0 °F - 71.6 °F 83% 30.10 in 10.0 mi ESE 3.5 mph - N/A   Partly Cloudy
10:54 PM 75.9 °F - 71.1 °F 85% 30.12 in 10.0 mi East 4.6 mph - N/A   Scattered Clouds
11:54 PM 75.9 °F - 71.1 °F 85% 30.12 in 10.0 mi SE 6.9 mph - N/A   Mostly Cloudy